Location: ??????
(41.3164°N, 22.6615°E)
Time: 16:47:31
(UTC+00:00)

Cosmos 1300 - Pass Details

Date: 31 May 2022
Orbit: 506 x 508 km, 82.5° (Epoch: 01 July)

Event Time Altitude Azimuth Distance (km) Brightness Sun altitude
Rises 21:38:00 0° 13° (NNE) 2,619 7.3 -25.7°
Reaches altitude 10° 21:41:08 10° 41° (NE) 1,727 5.8 -25.8°
Enters shadow 21:42:33 13° 63° (ENE) 1,542 5.2 -25.8°
